ASTRA 2E

Last updated on Tue Oct 15 2024 00:02:39 GMT+0000 (Coordinated Universal Time)

1 39285U 13056A 24288.25327071 .00000148 00000+0 00000+0 0 9994 2 39285 0.0801 317.7110 0003022 246.3990 298.8467 1.00272593 40308
UTC large
Height (km)
Speed (km/s)
/
Latitude / Longitude
Inclination (degrees)
Orbital Period (minutes)
Azimuth
Elevation
Range (km)
Doppler Factor

Next 0 passes for location: London (51.5072 / 0.1276)

Sorry there are no passes over London.